P/2012 T1 ( PanSTARRS )

Japanese version
Home page
Updated on May 7, 2015

---------------------------------------------------------------------

* Profile

Discovery Date October 6, 2012
Magnitude 20.7 mag
Discoverer Pan-STARRS 1 telescope (Haleakala)

* Pictures

* Orbital Elements

Epoch 2012 Sept. 30.0 TT = JDT 2456200.5
T 2012 Sept. 10.92633 TT                                MPC
q   2.4107867            (2000.0)            P               Q
n   0.17600506     Peri.  300.59148     +0.88003660     -0.43467452
a   3.1534499      Node    85.77422     +0.47421389     +0.78257452
e   0.2355082      Incl.   11.05879     +0.02562747     +0.44568507
P   5.60
From 160 observations 2012 Oct. 6-2013 Jan. 15, mean residual 0".4.

* Magnitudes Graph

        m1 = 15.0 + 5 log d + 10.0 log r

---------------------------------------------------------------------

The orbital elements are published on M.P.E.C. 2014-K54.
The magnitudes graphs are made with Comet for Windows.

---------------------------------------------------------------------

Copyright(C) Seiichi Yoshida (comet@aerith.net). All rights reserved.